JBU435 TIST-TJSJ

Flight info

Callsign JBU435
Flight time 0h 22m
Altitude 12000
Route PALCO7 PALCO RTE6 CHAKA DCT SNGRA DCT REKUA
Aircraft A320/M-SDE3FGHIRWY/LB1

Departure

Time 2026-05-07 14:14
Airport Cyril E. King Airport (TIST)

Arrival

Time 2026-05-07 14:37
Airport Luis Munoz Marin International Airport (TJSJ)
Time Latitude Longitude Altitude Speed Heading
2026-05-07 13:50 18.33573 -64.97334 32 ft 0 kts 119°
2026-05-07 14:06 18.33579 -64.97347 12 ft 4 kts 108°
2026-05-07 14:06 18.33583 -64.97374 38 ft 4 kts 75°
2026-05-07 14:07 18.33571 -64.97395 30 ft 4 kts 18°
2026-05-07 14:07 18.33560 -64.97397 28 ft 1 kts 358°
2026-05-07 14:07 18.33559 -64.97397 28 ft 0 kts 358°
2026-05-07 14:10 18.33567 -64.97397 32 ft 3 kts 358°
2026-05-07 14:10 18.33594 -64.97397 32 ft 5 kts
2026-05-07 14:10 18.33634 -64.97378 32 ft 7 kts 43°
2026-05-07 14:10 18.33643 -64.97346 32 ft 8 kts 88°
2026-05-07 14:11 18.33646 -64.97280 32 ft 11 kts 86°
2026-05-07 14:11 18.33652 -64.97193 32 ft 13 kts 86°
2026-05-07 14:11 18.33657 -64.97087 32 ft 16 kts 88°
2026-05-07 14:11 18.33662 -64.96965 32 ft 18 kts 87°
2026-05-07 14:12 18.33669 -64.96831 32 ft 20 kts 87°
2026-05-07 14:12 18.33676 -64.96681 32 ft 21 kts 88°
2026-05-07 14:12 18.33682 -64.96526 32 ft 21 kts 87°
2026-05-07 14:12 18.33687 -64.96379 32 ft 16 kts 88°
2026-05-07 14:13 18.33720 -64.96336 32 ft 8 kts 10°
2026-05-07 14:13 18.33765 -64.96340 30 ft 2 kts 335°
2026-05-07 14:13 18.33771 -64.96364 29 ft 3 kts 271°
2026-05-07 14:13 18.33768 -64.96446 30 ft 34 kts 267°
2026-05-07 14:14 18.33743 -64.96990 36 ft 109 kts 267°
2026-05-07 14:14 18.33701 -64.97995 37 ft 162 kts 268°
2026-05-07 14:14 18.33692 -64.99211 574 ft 163 kts 270°
2026-05-07 14:14 18.33505 -65.00352 1178 ft 159 kts 238°
2026-05-07 14:15 18.32887 -65.01402 1428 ft 182 kts 232°
2026-05-07 14:15 18.32101 -65.02555 1714 ft 203 kts 231°
2026-05-07 14:15 18.31238 -65.03836 2057 ft 228 kts 233°
2026-05-07 14:15 18.30296 -65.05285 2455 ft 252 kts 233°
2026-05-07 14:16 18.29270 -65.06886 2984 ft 271 kts 234°
2026-05-07 14:16 18.28246 -65.08573 3854 ft 277 kts 242°
2026-05-07 14:16 18.27607 -65.10491 4779 ft 281 kts 259°
2026-05-07 14:16 18.27513 -65.12560 5607 ft 286 kts 277°
2026-05-07 14:17 18.27827 -65.14632 6539 ft 287 kts 279°
2026-05-07 14:17 18.28151 -65.16721 7386 ft 291 kts 279°
2026-05-07 14:17 18.28470 -65.18833 8223 ft 293 kts 279°
2026-05-07 14:17 18.28786 -65.20958 9099 ft 294 kts 279°
2026-05-07 14:18 18.29104 -65.23093 9941 ft 296 kts 279°
2026-05-07 14:18 18.29464 -65.25267 10387 ft 312 kts 281°
2026-05-07 14:18 18.29921 -65.27585 10553 ft 335 kts 283°
2026-05-07 14:18 18.30448 -65.30051 10801 ft 353 kts 284°
2026-05-07 14:19 18.30998 -65.32557 11367 ft 358 kts 284°
2026-05-07 14:19 18.31558 -65.35125 11825 ft 361 kts 283°
2026-05-07 14:19 18.32109 -65.37715 11970 ft 364 kts 284°
2026-05-07 14:19 18.32667 -65.40393 12009 ft 384 kts 283°
2026-05-07 14:20 18.33248 -65.43213 12003 ft 401 kts 283°
2026-05-07 14:20 18.33837 -65.46103 12000 ft 405 kts 283°
2026-05-07 14:20 18.34427 -65.49004 12013 ft 405 kts 283°
2026-05-07 14:20 18.35019 -65.51907 12014 ft 406 kts 283°
2026-05-07 14:21 18.35616 -65.54815 12009 ft 407 kts 283°
2026-05-07 14:21 18.36214 -65.57730 12008 ft 407 kts 283°
2026-05-07 14:21 18.36803 -65.60606 12008 ft 407 kts 283°
2026-05-07 14:21 18.37402 -65.63527 12010 ft 407 kts 283°
2026-05-07 14:22 18.37999 -65.66436 11999 ft 401 kts 283°
2026-05-07 14:22 18.38557 -65.69184 12009 ft 366 kts 283°
2026-05-07 14:22 18.39083 -65.71787 12014 ft 361 kts 283°
2026-05-07 14:22 18.39604 -65.74369 12013 ft 360 kts 282°
2026-05-07 14:23 18.39818 -65.76995 12015 ft 362 kts 269°
2026-05-07 14:23 18.39479 -65.79619 12014 ft 363 kts 260°
2026-05-07 14:23 18.39002 -65.82158 11981 ft 340 kts 260°
2026-05-07 14:23 18.38559 -65.84508 11797 ft 316 kts 260°
2026-05-07 14:24 18.38139 -65.86737 11301 ft 307 kts 260°
2026-05-07 14:24 18.37729 -65.88923 10703 ft 303 kts 259°
2026-05-07 14:24 18.37325 -65.91079 10111 ft 300 kts 259°
2026-05-07 14:24 18.36923 -65.93226 9533 ft 296 kts 259°
2026-05-07 14:25 18.36529 -65.95335 8943 ft 292 kts 259°
2026-05-07 14:25 18.36147 -65.97425 8343 ft 290 kts 259°
2026-05-07 14:25 18.35925 -65.99505 7786 ft 290 kts 270°
2026-05-07 14:25 18.35965 -66.01617 7271 ft 287 kts 270°
2026-05-07 14:26 18.36030 -66.03710 6699 ft 286 kts 271°
2026-05-07 14:26 18.36114 -66.05800 6090 ft 285 kts 271°
2026-05-07 14:26 18.36196 -66.07874 5537 ft 282 kts 271°
2026-05-07 14:26 18.36277 -66.09930 4995 ft 278 kts 271°
2026-05-07 14:27 18.36357 -66.11927 4613 ft 270 kts 271°
2026-05-07 14:27 18.36442 -66.13870 4229 ft 268 kts 271°
2026-05-07 14:27 18.36520 -66.15838 3834 ft 271 kts 271°
2026-05-07 14:27 18.36597 -66.17826 3441 ft 269 kts 271°
2026-05-07 14:28 18.36680 -66.19772 3075 ft 261 kts 272°
2026-05-07 14:28 18.36754 -66.21661 3011 ft 257 kts 271°
2026-05-07 14:28 18.36826 -66.23530 3009 ft 257 kts 271°
2026-05-07 14:28 18.37198 -66.25347 3014 ft 257 kts 298°
2026-05-07 14:29 18.38254 -66.26822 3012 ft 255 kts 314°
2026-05-07 14:29 18.39493 -66.28158 3005 ft 255 kts 316°
2026-05-07 14:29 18.40779 -66.29456 3010 ft 255 kts 324°
2026-05-07 14:29 18.42361 -66.30183 2994 ft 246 kts 356°
2026-05-07 14:30 18.43969 -66.29961 3011 ft 228 kts 27°
2026-05-07 14:30 18.45138 -66.28964 3025 ft 210 kts 53°
2026-05-07 14:30 18.46003 -66.27798 3008 ft 200 kts 56°
2026-05-07 14:30 18.46581 -66.26504 3003 ft 195 kts 84°
2026-05-07 14:31 18.46537 -66.25155 3033 ft 175 kts 110°
2026-05-07 14:31 18.46027 -66.24066 3018 ft 157 kts 118°
2026-05-07 14:31 18.45522 -66.23069 3019 ft 156 kts 117°
2026-05-07 14:31 18.45007 -66.22054 3014 ft 159 kts 117°
2026-05-07 14:32 18.44478 -66.21012 3021 ft 164 kts 118°
2026-05-07 14:32 18.43943 -66.19961 3019 ft 162 kts 118°
2026-05-07 14:32 18.43472 -66.18870 3005 ft 162 kts 104°
2026-05-07 14:32 18.43387 -66.17750 3007 ft 148 kts 93°
2026-05-07 14:33 18.43385 -66.16673 2803 ft 147 kts 92°
2026-05-07 14:33 18.43383 -66.15623 2605 ft 140 kts 92°
2026-05-07 14:33 18.43381 -66.14596 2423 ft 139 kts 90°
2026-05-07 14:33 18.43379 -66.13579 2246 ft 138 kts 92°
2026-05-07 14:34 18.43377 -66.12567 2058 ft 138 kts 91°
2026-05-07 14:34 18.43375 -66.11566 1924 ft 138 kts 91°
2026-05-07 14:34 18.43374 -66.10564 1714 ft 137 kts 92°
2026-05-07 14:34 18.43373 -66.09573 1540 ft 135 kts 92°
2026-05-07 14:35 18.43369 -66.08566 1408 ft 140 kts 89°
2026-05-07 14:35 18.43391 -66.07554 1159 ft 139 kts 91°
2026-05-07 14:35 18.43370 -66.06550 897 ft 135 kts 91°
2026-05-07 14:35 18.43364 -66.05564 727 ft 135 kts 91°
2026-05-07 14:36 18.43341 -66.04566 625 ft 139 kts 86°
2026-05-07 14:36 18.43361 -66.03562 400 ft 136 kts 88°
2026-05-07 14:36 18.43346 -66.02590 223 ft 135 kts 85°
2026-05-07 14:36 18.43355 -66.01618 47 ft 133 kts 87°
2026-05-07 14:37 18.43355 -66.00688 -36 ft 113 kts 90°
2026-05-07 14:37 18.43374 -65.99981 -40 ft 22 kts 67°
2026-05-07 14:37 18.43448 -65.99916 -29 ft 10 kts 321°
2026-05-07 14:38 18.43466 -65.99990 -29 ft 12 kts 271°
2026-05-07 14:38 18.43466 -66.00088 -30 ft 15 kts 270°
2026-05-07 14:38 18.43467 -66.00213 -32 ft 19 kts 270°
2026-05-07 14:38 18.43467 -66.00348 -31 ft 18 kts 270°
2026-05-07 14:39 18.43467 -66.00464 -29 ft 10 kts 270°
2026-05-07 14:39 18.43467 -66.00546 -28 ft 12 kts 270°
2026-05-07 14:39 18.43467 -66.00629 -28 ft 8 kts 270°
2026-05-07 14:39 18.43487 -66.00653 -32 ft 3 kts 359°
2026-05-07 14:40 18.43508 -66.00653 -40 ft 4 kts
2026-05-07 14:40 18.43534 -66.00653 -27 ft 4 kts 360°
2026-05-07 14:40 18.43550 -66.00652 -41 ft 1 kts
2026-05-07 14:40 18.43554 -66.00652 -38 ft 0 kts 359°